Regional Weather Roundup
Issued by NWS Newport/Morehead, NC

Current Version | Previous Version | Text Only | Print | Product List | Glossary Off
Versions: 1 2 3 4 5 6 7 8 9 10 11 12 13 14 15 16 17 18 19 20 21 22 23 24 25 26 27 28 29 30 31 32 33 34 35 36 37 38 39 40 41 42 43 44 45 46 47 48 49 50

000
ASUS42 KMHX 280125
RWRMHX
WEATHER ROUNDUP FOR EASTERN NORTH CAROLINA
NATIONAL WEATHER SERVICE NEWPORT/MOREHEAD CITY NC
900 PM EDT SAT MAY 27 2017

NOTE: "FAIR" INDICATES FEW OR NO CLOUDS BELOW 12,000 FEET
WITH NO SIGNIFICANT WEATHER AND/OR OBSTRUCTIONS TO VISIBILITY

NCZ015>017-031-032-045>047-102-103-280200-
NORTH COAST

CITY           SKY/WX    TMP DP  RH WIND       PRES   REMARKS
EDENTON        CLOUDY    80  71  74 CALM      29.87R
ELIZABETH CITY CLOUDY    79  69  71 S6        29.85S
KITTY HAWK     CLOUDY    77  69  74 CALM      29.86S
MANTEO         CLOUDY    77  71  81 SW10      29.87S

$$

NCZ045>047-081-094-103-104-280200-
CENTRAL COAST

CITY           SKY/WX    TMP DP  RH WIND       PRES   REMARKS
FRISCO         CLEAR     76  71  85 SW12      29.90R

$$

NCZ095-097-098-100-101-280200-
SOUTHERN COAST

CITY           SKY/WX    TMP DP  RH WIND       PRES   REMARKS
BEAUFORT       PTCLDY    76  71  85 SW13      29.89S
CEDAR ISLAND   NOT AVBL
JACKSONVILLE   CLEAR     77  70  79 SW6       29.88R
PINEY ISLAND   PTCLDY   N/A N/A N/A SW12      29.88S
WILMINGTON     CLEAR     77  68  73 SW10G17   29.89S


$$

NCZ011>013-027>030-043-044-078>080-089-090>093-098-280200-
COASTAL PLAIN

CITY           SKY/WX    TMP DP  RH WIND       PRES   REMARKS
AHOSKIE        NOT AVBL
CLINTON        CLEAR     77  70  78 CALM      29.88S
ELIZABETHTOWN  CLEAR     82  66  57 SW3       29.89R
GOLDSBORO      CLEAR     80  68  65 S7        29.84S
GREENVILLE     CLEAR     77  68  73 CALM      29.89R
HAVELOCK       CLEAR     76  68  76 SW8       29.89S
KENANSVILLE    CLEAR     73  70  88 CALM      29.87S
KINSTON        CLEAR     73  68  83 CALM      29.87S
NEW BERN       PTCLDY    77  71  82 S6        29.89R
RICHLANDS      CLEAR     77  71  82 S5        29.89R
ROCKY MOUNT    MOCLDY    75  69  81 CALM      29.85F
WASHINGTON     CLOUDY    78  70  76 S5        29.87R
WHITEVILLE     CLEAR     78  68  70 CALM      29.89R

$$

AMZ130-135-150-152-154-156-158-170-250-252-270-ANZ085-086-088-633-658-670-280200-
MARINE OBSERVATIONS

STATION/POSITION TIME  TEMP    WIND        PRES    WAVE   SWELL
                       AIR SEA DIR/SP/G            HT/PER HT/PER
                 (UTC) (F)     (DEG/KT/KT) (MB)    (FT/S) (FT/S)
CHESAPEAKE LIGHT NOT AVBL
64 E VA BEACH    0050   68 66  170/  6/  6 1011.7    2/ 7   2/ 7
DUCK             0100   80 64  200/ 11/ 14 1010.7
2 E DUCK         0100      67                N/A     2/ 7
OREGON INLET     0100   76 76  200/ 17/ 19 1011.3
13E OREGON INLT  0048      68                N/A     3/ 7   2/ 7
HATTERAS CG      0100   75 75  210/  9/ 12 1012.2
DIAMOND BUOY     0050   78 78  230/ 17/ 19 1012.1    3/ 7   2/ 7
CAPE LOOKOUT     0100   76     220/ 11/ 15 1012.1
BEAUFORT LAB     0100   76 73  220/  5/  9 1011.5
30 SE NEW RVR IN 0108   77 77  240/ 17/ 21 1012.4
30 SE NEW RVR IN 0113      77                N/A     5/ 5
27 SE WRIGHTSVLE 0108   76 78  220/ 17/ 23 1012.1
5 SE WRIGHTSVLE  0108   76 75  220/ 12/ 17 1012.2
225 S CAPE HAT   0050   76 77  220/ 12/ 14 1015.5    3/ 7   2/ 7
41 SE CHARLESTON 0110   77 75  210/ 12/ 16 1013.3

$$




USA.gov is the U.S. government's official web portal to all federal, state and local government web resources and services.